Location: ?????
(44.4284°N, 135.2222°E)
Time: 03:24:09
(UTC+00:00)

USA 234 - Pass Details

Date: 19 May 2025
Orbit: 1097 x 1111 km, 123.0° (Epoch: 13 June)

Event Time Altitude Azimuth Distance (km) Brightness Sun altitude
Rises 18:42:17 0° 127° (SE) 3,898 6.4 -7.5°
Reaches altitude 10° 18:44:45 10° 128° (SE) 2,944 5.7 -7.1°
Maximum altitude 18:51:16 90° 139° (SE) 1,103 3.3 -6.2°
Drops below altitude 10° 18:57:50 10° 310° (NW) 2,962 5.4 -5.2°
Sets 19:00:19 0° 310° (NW) 3,924 6.0 -4.9°
